Weather in Mistky

Ukraine / Luhansk Region     49°20′32″N   38°30′11″E
temp.,
°C
wind,
m/s
gust,
m/s
humid.,
%
clouds,
%
prec.,
mm/h
press.,
hPa
HPBL,
m
22 april, thu
thu2200:00+8ssw357170 0.0 101884
03:00+7sw338234 0.1 101944
06:00+6sw34875 0.0 102081
09:00+12sw34665 0.0 1021553
12:00+16sw344641 0.1 10212005
15:00+16wsw4442100 0.1 10201988
18:00+15sse115295 0.0 102140
21:00+12sw3360100 0.0 102237
23 april, fri
fri2300:00+11ssw226287 0.0 102132
03:00+9sw22747 0.0 102119
06:00+9sw348463 0.0 102193
09:00+12sw4671100 0.0 1021414
12:00+17sw564818 0.5 10201925
15:00+16ssw4747100 0.6 1018514
18:00+16ssw474814 0.0 1016364
21:00+13ssw5115652 0.0 1016518
24 april, sat
sat2400:00+10ssw51168100 0.0 1015348
03:00+10ssw41178100 0.2 1014443
06:00+9ssw6117699 0.0 1013581
09:00+7wnw5787100 0.7 10141031
12:00+11w685280 0.2 10141956
15:00+12wsw91038100 0.6 10142522
18:00+11w5104835 0.0 10142037
21:00+6w6117024 0.1 1017994
25 april, sun
sun2500:00+4w611715 0.0 1018631
03:00+3w5980100 0.0 1019687
06:00+4w58694 0.0 1020556
09:00+7wnw68535 0.0 10201216
12:00+11w5738100 0.0 10202435
15:00+12w563399 0.0 10192447
18:00+11wsw34405 0.0 10191932
21:00+7sw224836 0.0 101918
26 april, mon
mon2600:00+6ssw33529 0.0 101924
03:00+5ssw3455100 0.0 101848
06:00+4wsw356673 0.0 1018108
09:00+10ssw3454100 0.0 1017680
12:00+13ssw7941100 0.0 10152275
15:00+8w81178100 0.4 1015974
18:00+6w587498 0.1 10161014
21:00+4ssw34785 0.1 101669